Regional Weather Roundup
Issued by NWS Sterling, VA

Home | Current Version | Previous Version | Text Only | Print | Product List | Glossary On
Versions: 1 2 3 4 5 6 7 8 9 10 11 12 13 14 15 16 17 18 19 20 21 22 23 24 25 26 27 28 29 30 31 32 33 34 35 36 37 38 39 40 41 42 43 44 45 46 47 48 49 50
000
ASUS41 KLWX 012110
RWRLWX

REGIONAL WEATHER ROUNDUP
NATIONAL WEATHER SERVICE BALTIMORE MD/WASHINGTON DC
500 PM EDT MON SEP 01 2014

Note: "FAIR" indicates few or no clouds below 12,000 feet
with no significant weather and/or obstructions to visibility.
 TC=TEMPERATURE CELSIUS

 * =Non NWS site. Station does not report precipitation (e.g. rain,
    snow, etc.), thunder, or fog.

DCZ001-MDZ009-015-VAZ040>042-051-053>054-012200-
WASHINGTON METRO

CITY           SKY/WX    TMP DP  RH WIND       PRES   REMARKS
WASHINGTON NAT CLOUDY    84  70  61 CALM      29.96R
DULLES         MOSUNNY   83  72  69 CALM      29.96F
ANDREWS AFB    CLOUDY    86  73  66 NW8G16    29.95F THUNDER HAZE
QUANTICO       MOSUNNY   83  74  74 CALM      29.96F
COLLEGE PARK*  CLOUDY    84  73  70 W7        29.96R HX  91
LEESBURG*      MOSUNNY   84  73  70 CALM      29.97F HX  91
GAITHERSBURG*  MOSUNNY   82  73  74 CALM      30.00F

$$

MDZ006>007-011-014-012200-
BALTIMORE METRO

CITY           SKY/WX    TMP DP  RH WIND       PRES   REMARKS
BWI AIRPORT    CLOUDY    85  71  63 W12       29.95S HX  90
MD SCIENCE CTR   N/A     86  75  69 MISG      29.95S HX  95
MARTIN STATE   PTSUNNY   82  81  94 CALM      29.96F HX  95
ANNAPOLIS      PTSUNNY   84  73  69 S8        29.94S HX  90
FORT MEADE*    CLOUDY    81  72  74 W9G18     29.98S

$$

MDZ012-015-019>023-012200-
MARYLAND EASTERN SHORE

CITY           SKY/WX    TMP DP  RH WIND       PRES   REMARKS
OCEAN CITY     MOSUNNY   84  77  79 S9        29.97S HX  94
SALISBURY      MOSUNNY   92  73  53 SW9       29.96F HX 100
BAY BRIDGE AP*   N/A     86  72  62 S6        29.95S HX  92
EASTON*        PTSUNNY   90  73  58 SW7       29.99F HX  98

$$

MDZ017>025-012200-
SOUTHERN MARYLAND

CITY           SKY/WX    TMP DP  RH WIND       PRES   REMARKS
PATUXENT RIVER PTSUNNY   86  76  71 SE7       29.95S HX  96
ST INIGOES     SUNNY     89  74  60 SE5       29.95F THUNDER HX  98
LEONARDTOWN*   PTSUNNY   91  68  46 NW8       29.97S HX  95

$$

MDZ003>005-012200-
NORTH CENTRAL MARYLAND

CITY           SKY/WX    TMP DP  RH WIND       PRES   REMARKS
FREDERICK*     MOSUNNY   90  73  58 SW3       29.98F HX  98
HAGERSTOWN APT SUNNY     87  68  52 W5        29.95F HX  90
WESTMINSTER*   MOSUNNY   88  73  62 SW8       29.97F HX  96

$$

MDZ501>502-012200-
WESTERN MARYLAND

CITY           SKY/WX    TMP DP  RH WIND       PRES   REMARKS
OAKLAND*       MOSUNNY   73  64  73 SW6G17    30.09S
CUMBERLAND*    PTSUNNY   91  64  40 S7        29.99F HX  93

$$

VAZ025>031-012200-
SHENANDOAH VALLEY

CITY           SKY/WX    TMP DP  RH WIND       PRES   REMARKS
WINCHESTER*    SUNNY     90  64  43 SW6       29.96F HX  91
STAUNTON*      PTSUNNY   88  63  42 S5        30.01F

$$

WVZ021-048>050-054>055-012200-
EASTERN WEST VIRGINIA PANHANDLE

CITY           SKY/WX    TMP DP  RH WIND       PRES   REMARKS
MARTINSBURG    SUNNY     91  65  41 W7        29.95F HX  93
PETERSBURG*    NOT AVBL

$$

VAZ036>039-050-012200-
CENTRAL FOOTHILLS

CITY           SKY/WX    TMP DP  RH WIND       PRES   REMARKS
CHARLOTTESVILL SUNNY     90  68  48 VRB3      29.97F HX  94
ORANGE*        MOSUNNY   90  68  48 S6        29.98S HX  93

$$

VAZ055>057-012200-
NORTH AND CENTRAL PIEDMONT

CITY           SKY/WX    TMP DP  RH WIND       PRES   REMARKS
FREDERICKSBRG* LGT RAIN  83  75  76 W3        29.95F HX  91
STAFFORD*      MOSUNNY   85  73  68 CALM      30.00F HX  92

$$

NCZ024-NYZ072-PAZ021-071-VAZ022-071-012200-
OTHER REGIONAL OBSERVATIONS

CITY           SKY/WX    TMP DP  RH WIND       PRES   REMARKS
NEW YORK CITY  PTSUNNY   85  71  63 VRB3      29.95F HX  90
PHILADELPHIA   MOSUNNY   89  70  53 SW9       29.94F HX  94
PITTSBURGH     PTSUNNY   76  72  87 S5        29.96F
ROANOKE        MOSUNNY   88  62  41 W10       30.06S
RICHMOND       PTSUNNY   93  69  45 SW10      29.96F HX  98
RALEIGH        PTSUNNY   89  70  53 W6        30.04F HX  94

$$

ANZ530>537-012200-
MARINE OBSERVATIONS

STATION/POSITION TIME  TEMP    WIND        PRES
                       AIR SEA DIR/SP/G
                 (UTC) (F)     (DEG/KT/KT) (MB)
THOMAS PT LIGHT  2100   82 79  180/ 11/ 11 1014.8F
BALT KEY BRIDGE  2100          110/  5/  7 1013.8F
COVE POINT       2100   80     170/  8/  9 1014.3F
LEWISETTA        2100   85 81   60/  6/  7 1013.8F
SOLOMONS ISLAND  2100      80                N/A
PINEY POINT      2100           CALM  /  1   N/A

$$



USA.gov is the U.S. government's official web portal to all federal, state and local government web resources and services.